SL-16 DEB, 22343

Orbit data source: Space-Track

SL-16 DEB, 22343 is space debris in LEO originally from a launch on Fri, 25 Dec 1992 UTC launched from the Tyuratam Missile And Space Complex (TTMTR). Debris objects in space refer to the collection of defunct objects orbiting the Earth. Examples of debris include non-operational satellites, rocket bodies, and fragments generated from explosions, collisions, or faulty payload assembly.

Loading next visibility...
Identifier
22343, 1992-093AG
Orbit
LEO
Last TLE update
22 hours ago
Origin
Manufacturer
Unknown
Mission
Spacecraft
Bus & Motor
Unknown
Mass
Unknown
Launch date (UTC)
1992-12-25 (33 years ago)
Launch vehicle
Unknown
Launch site
Tyuratam Missile And Space Complex (TTMTR)
Object type
Payload
Rocket body
Debris
Shape & HBR
Unknown
Radar Cross Section
Medium (>0.1 m² and <1 m²)

Expand to show TLE details & history

TLE from 22 hours ago
0 SL-16 DEB
1 22343U 92093AG  25186.27667980  .00000347  00000-0  20861-3 0  9998
2 22343  70.9582 122.9457 0092777 346.0543 166.2288 14.11537542667245
Epoch: 2025-07-05T06:38Z
TLE epoch observation values (Epoch: 2025-07-05T06:38:25.134Z)
Latitude
25.89023°
Longitude
-89.7689°
Altitude
921.95 km
Speed
7.36 km/s
True Right ascension
19h 33m 24s
True Declination
25° 45' 30"
Sunlit
Object was in full shadow at epoch
Visualization orbit readout
Latitude
17.32283°
Longitude
-88.25471°
Altitude
922.919 km
Speed
7.358 km/s
Apparent Right ascension
22h 37m 55s
Apparent Declination
-21° 37' 56"
Sunlit
Object is in full shadow
Visualization observer readout
Local Sidereal Time
16:44:53
Azimuth
107.944° ESE
Elevation
-12.408°
Doppler factor
1
Orbital elements
Apogee altitude
919.127 km
Perigee altitude
784.968 km
Semi-major axis
7,230.184 km
Eccentricity
0.00928
Inclination
70.9582°
RAAN
122.9457°
Arg. of periapsis
346.0543°
True anomaly
Unknown
Mean anomaly
166.2288°
Eccentric anomaly
Unknown
Mean motion
3.53036 °/min
Orbital period
101.97 mins
BSTAR
0.00020861
Loading maneuver chart data...
Loading SW <> Apogee altitude chart data...
Loading historical data...
Loading historical data...
Loading historical data...
Loading historical data...
Loading historical data...
Loading historical data...
Loading historical data...

SL-16 DEB Visibility forecast

Observer location: undefined°, undefined°

Span
Click to sort rows by Start time (UTC) header in descending order
Start Az.
Max El. time (UTC)
Max El. Az.
Max El.
End time (UTC)
End Az.
10 mins2025-07-06 06:16:39.611Z349.896° N2025-07-06 06:21:39.611Z57.525° ENE36.293°2025-07-06 06:26:39.611Z131.859° SE
8 mins2025-07-06 08:02:39.611Z299.966° NW2025-07-06 08:05:39.611Z260.779° W23.628°2025-07-06 08:10:39.611Z204.454° SW
9 mins2025-07-06 21:10:39.611Z209.951° SW2025-07-06 21:14:39.611Z326.699° NNW43.883°2025-07-06 21:19:39.611Z20.043° NNE
|